Hourly Data Report for May 03, 2021

ATIKOKAN (AUT)
ONTARIO
Current Station Operator: ECCC - MSC

48°45'40.000" N
91°37'41.000" W
389.30 m
6020LPQ
71747
WCH

Download Data

Hourly Data (May 2021)
Hourly Data Report for May 3, 2021
TIME
LST
Temp Definition
°C
Dew Point Definition
°C
Rel Hum Definition
%
Precip. Amount Definition
mm

Wind Dir Definition
10's deg

Wind Spd Definition
km/h
Visibility Definition
km
Stn Press Definition
kPa
Hmdx Definition


Wind Chill Definition


Weather Definition


00:00 8.9 1.7 61 0.0 6 9   96.11     LegendNANA
01:00 8.1 1.4 63 0.0 8 7   96.14     LegendNANA
02:00 6.5 1.4 70 0.0 8 9   96.13     LegendNANA
03:00 5.4 3.1 85 0.3 6 5   96.15     LegendNANA
04:00 5.4 2.6 82 0.0 5 6   96.16     LegendNANA
05:00 5.3 2.3 81 0.0 3 7   96.12     LegendNANA
06:00 5.1 1.4 77 0.0 4 11   96.17     LegendNANA
07:00 5.1 0.3 71 0.0 4 12   96.23     LegendNANA
08:00 5.6 0.1 68 0.0 5 11   96.26     LegendNANA
09:00 5.4 0.0 68 0.0 5 14   96.25     LegendNANA
10:00 4.5 2.2 85 0.2 4 7   96.28     LegendNANA
11:00 4.1 3.0 93 0.9 4 6   96.30     LegendNANA
12:00 4.4 3.1 91 0.1 5 5   96.33     LegendNANA
13:00 4.0 2.2 88 0.0 6 7   96.38     LegendNANA
14:00 3.7 2.7 93 1.1 2 4   96.39     LegendNANA
15:00 3.7 2.8 94 0.9 3 6   96.43     LegendNANA
16:00 4.2 3.0 92 0.0 4 10   96.45     LegendNANA
17:00 3.4 1.6 88 0.0 2 7   96.52     LegendNANA
18:00 3.6 1.8 88 0.0 2 4   96.58     LegendNANA
19:00 3.4 1.7 89 0.0 1 3   96.57     LegendNANA
20:00 3.2 1.7 90 0.0 2 5   96.63     LegendNANA
21:00 2.8 1.2 90 0.0 36 5   96.67     LegendNANA
22:00 3.0 1.2 88 0.0 36 6   96.68     LegendNANA
23:00 1.9 0.7 92 0.0 35 5   96.68     LegendNANA

Notes on Data Quality.

Legend

  • E = Estimated
  • M = Missing
  • NA = Not Available*
  • [empty] = Indicates an unobserved value
Date modified: